CAPE
1 0 0 0 0 0 0 1 0 0 0 0 0 0 0 0 0 0 0 0 0 0 0 0 0 0 0 0 0 0 0 0 0 0 0 0 0 0 0 0 0 0 0 0 0 0 0
0 0 0 0 0 0 0 0 0 0 0 0 0 0 0 0 0 0 0 0 0 0 0 0 0 0 0 0 0 0 0 0 0 0 0 0 0 0 0 0 0 0 0 0 0 0 0
0 0 0 0 0 0 0 0 0 0 0 0 0 0 0 0 0 0 0 0 0 0 0 0 0 0 0 0 0 0 0 0 0 0 0 0 0 0 0 0 0 0 0 0 0 0 0
0 0 0 0 0 0 0 0 0 0 0 0 0 0 0 0 0 0 0 0 0 0 0 0 0 0 0 0 0 0 0 0 0 0 0 0 0 0 0 0 0 0 0 0 0 0 0
0 0 0 0 0 0 0 0 0 0 0 0 0 0 0 0 0 0 0 0 0 0 0 0 0 0 0 0 0 0 0 0 0 0 0 0 0 0 0 0 0 0 0 0 0 0 0
0 0 0 0 0 0 0 0 0 0 0 0 1 3 0 0 0 0 0 0 0 0 0 0 0 0 0 0 0 0 0 0 0 0 0 0 0 0 0 0 0 0 0 0 0 0 0
0 0 0 0 0 0 0 0 0 0 0 0 0 0 0 0 0 0 0 0 0 0 0 0 0 0 0 0 0 0 0 0 0 0 0 0 0 0 0 0 0 0 0 0 0 0 0
0 0 0 0 0 0 0 0 0 0 0 1 0 1 1 0 0 0 0 0 0 0 0 0 0 0 0 0 0 0 0 0 0 0 0 0 0 0 0 0 0 0 0 0 0 0 0
0 0 0 0 0 0 0 0 0 0 0 0 0 1 1 0 0 0 0 0 0 0 0 0 0 0 0 0 0 0 0 0 0 0 0 0 0 0 0 0 0 0 0 0 0 0 0
0 0 0 0 0 0 0 0 0 0 0 0 2 1 0 0 0 0 0 0 0 0 0 0 0 0 0 0 0 0 0 0 0 0 0 0 0 0 0 0 0 0 0 0 0 0 0
0 0 0 0 0 0 0 0 0 0 0 0 0 1 0 2 0 0 0 0 0 0 0 0 0 0 0 0 0 0 0 0 0 0 0 0 0 0 0 0 0 0 0 0 0 0 0
0 0 0 0 0 0 0 0 0 0 0 0 0 1 2 0 0 0 0 0 0 0 0 0 0 0 0 0 0 0 0 0 0 0 0 0 0 0 0 0 0 0 0 0 0 0 0
0 0 0 0 0 0 0 0 0 0 0 0 0 0 1 1 0 0 0 0 0 0 0 0 0 0 0 0 0 0 0 0 0 0 0 0 0 0 0 0 0 0 0 0 0 0 0
0 0 0 0 0 0 0 0 0 0 0 0 0 0 0 0 0 0 0 0 0 0 0 0 0 0 0 0 0 0 0 0 0 0 0 0 0 0 0 0 0 0 0 0 0 0 0
8 8 0 0 0 0 0 0 0 0 0 0 1 0 0 0 0 0 0 0 0 0 0 0 0 0 0 0 0 0 0 0 0 0 0 0 0 0 0 0 0 0 0 0 0 0 0
6 8 5 0 0 0 0 0 0 0 0 0 0 0 0 0 0 0 0 0 0 0 0 0 0 0 0 0 0 0 0 0 0 0 0 0 0 0 0 0 0 0 0 0 0 0 0
0 0 0 0 0 0 0 0 0 0 0 0 0 0 0 0 0 8 0 0 0 0 0 0 0 0 0 0 0 0 0 0 0 0 0 0 0 0 0 0 0 0 0 0 0 0 0
0 0 0 0 0 0 0 0 0 0 0 0 0 0 0 0 1 0 0 0 0 0 0 0 0 0 0 0 0 0 0 0 0 0 0 0 0 0 0 0 0 0 0 0 0 0 0
0 0 0 0 0 0 0 0 0 0 0 0 0 1 0 7 0 0 0 0 0 0 0 0 0 0 0 0 0 0 0 0 0 0 0 0 0 0 0 0 0 0 0 0 0 0 0
0 0 0 0 0 0 0 0 0 0 0 2 1 1 1 46 16 0 0 0 0 0 0 0 0 0 0 0 0 0 0 0 0 0 0 0 0 0 0 0 0 0 0 0 0 0 0
0 0 0 0 0 0 0 0 0 0 0 1 19 6 0 11 5 16 1 0 0 0 0 0 0 0 0 0 0 0 0 0 0 0 0 0 0 0 0 0 0 0 0 0 0 0 0
6 0 0 0 0 0 0 0 0 0 0 0 1 2 1 2 3 1 2 0 0 0 0 0 0 0 0 0 0 0 0 0 0 0 0 0 0 0 0 0 0 0 0 0 0 0 4
14 0 0 0 0 0 0 0 0 0 0 0 0 1 2 1 3 3 0 0 0 0 0 0 0 0 0 0 0 0 0 0 0 0 0 0 0 0 0 0 0 0 0 0 0 0 9
18 5 0 0 0 0 0 0 0 0 3 1 0 0 1 0 3 2 0 0 0 0 0 0 0 0 0 0 0 0 0 0 0 0 0 0 0 0 0 0 0 0 0 0 0 0 0
17 8 0 0 0 0 1 0 0 0 0 0 0 0 0 0 2 1 0 0 0 0 0 0 0 0 0 0 0 0 0 0 0 0 0 0 0 0 0 0 0 0 0 0 1 0 0
14 8 0 0 0 0 1 0 0 0 0 0 0 2 4 0 0 3 2 0 0 0 0 0 0 0 0 0 0 0 0 0 0 0 0 0 0 0 0 0 0 0 0 0 15 3 11
16 0 0 0 0 0 1 0 0 0 0 0 0 2 1 0 2 4 3 1 0 0 0 0 0 0 0 0 0 0 0 0 0 0 0 0 0 0 0 0 0 0 0 14 9 6 0
7 0 0 0 0 0 0 0 0 0 0 0 0 0 0 0 0 0 1 1 0 0 0 0 0 0 0 0 0 0 0 0 0 0 0 0 0 0 0 0 0 0 15 5 15 0 0
6 0 0 0 0 0 0 0 0 0 0 1 0 0 0 0 0 0 0 0 0 0 0 0 0 0 0 0 0 0 0 0 0 0 0 0 0 0 0 0 0 2 20 0 0 0 0
CIN
0 0 0 0 0 0 0 0 0 0 0 0 0 0 0 0 0 0 0 0 0 0 0 0 0 0 0 0 0 0 0 0 0 0 0 0 0 0 0 0 0 0 0 0 0 0 0
0 0 0 0 0 0 0 0 0 0 0 0 0 0 0 0 0 0 0 0 0 0 0 0 0 0 0 0 0 0 0 0 0 0 0 0 0 0 0 0 0 0 0 0 0 0 0
0 0 0 0 0 0 0 0 0 0 0 0 0 0 0 0 0 0 0 0 0 0 0 0 0 0 0 0 0 0 0 0 0 0 0 0 0 0 0 0 0 0 0 0 0 0 0
0 0 0 0 0 0 0 0 0 0 0 0 0 0 0 0 0 0 0 0 0 0 0 0 0 0 0 0 0 0 0 0 0 0 0 0 0 0 0 0 0 0 0 0 0 0 0
0 0 0 0 0 0 0 0 0 0 0 0 0 0 0 0 0 0 0 0 0 0 0 0 0 0 0 0 0 0 0 0 0 0 0 0 0 0 0 0 0 0 0 0 0 0 0
0 0 0 0 0 0 0 0 0 0 0 0 0 0 0 0 0 0 0 0 0 0 0 0 0 0 0 0 0 0 0 0 0 0 0 0 0 0 0 0 0 0 0 0 0 0 0
0 0 0 0 0 0 0 0 0 0 0 0 0 0 0 0 0 0 0 0 0 0 0 0 0 0 0 0 0 0 0 0 0 0 0 0 0 0 0 0 0 0 0 0 0 0 0
0 0 0 0 0 0 0 0 0 0 0 0 0 0 0 0 0 0 0 0 0 0 0 0 0 0 0 0 0 0 0 0 0 0 0 0 0 0 0 0 0 0 0 0 0 0 0
0 0 0 0 0 0 0 0 0 0 0 0 0 0 0 0 0 0 0 0 0 0 0 0 0 0 0 0 0 0 0 0 0 0 0 0 0 0 0 0 0 0 0 0 0 0 0
0 0 0 0 0 0 0 0 0 0 0 0 0 0 0 0 0 0 0 0 0 0 0 0 0 0 0 0 0 0 0 0 0 0 0 0 0 0 0 0 0 0 0 0 0 0 0
0 0 0 0 0 0 0 0 0 0 0 0 0 0 0 0 0 0 0 0 0 0 0 0 0 0 0 0 0 0 0 0 0 0 0 0 0 0 0 0 0 0 0 0 0 0 0
0 0 0 0 0 0 0 0 0 0 0 0 0 0 0 0 0 0 0 0 0 0 0 0 0 0 0 0 0 0 0 0 0 0 0 0 0 0 0 0 0 0 0 0 0 0 0
0 0 0 0 0 0 0 0 0 0 0 0 0 0 0 0 0 0 0 0 0 0 0 0 0 0 0 0 0 0 0 0 0 0 0 0 0 0 0 0 0 0 0 0 0 0 0
0 0 0 0 0 0 0 0 0 0 0 0 0 0 0 0 0 0 0 0 0 0 0 0 0 0 0 0 0 0 0 0 0 0 0 0 0 0 0 0 0 0 0 0 0 0 0
-3 0 0 0 0 0 0 0 0 0 0 0 0 0 0 0 0 0 0 0 0 0 0 0 0 0 0 0 0 0 0 0 0 0 0 0 0 0 0 0 0 0 0 0 0 0 0
-2 -1 0 0 0 0 0 0 0 0 0 0 0 0 0 0 0 0 0 0 0 0 0 0 0 0 0 0 0 0 0 0 0 0 0 0 0 0 0 0 0 0 0 0 0 0 0
0 0 0 0 0 0 0 0 0 0 0 0 0 0 0 0 0 -2 0 0 0 0 0 0 0 0 0 0 0 0 0 0 0 0 0 0 0 0 0 0 0 0 0 0 0 0 0
0 0 0 0 0 0 0 0 0 0 0 0 -1 0 0 0 0 -5 0 0 0 0 0 0 0 0 0 0 0 0 0 0 0 0 0 0 0 0 0 0 0 0 0 0 0 0 0
0 0 0 0 0 0 0 0 0 0 0 0 0 0 0 -14 0 0 0 0 0 0 0 0 0 0 0 0 0 0 0 0 0 0 0 0 0 0 0 0 0 0 0 0 0 0 0
0 0 0 0 0 0 0 0 0 0 0 0 0 0 -14 0 -12 0 0 0 0 0 0 0 0 0 0 0 0 0 0 0 0 0 0 0 0 0 0 0 0 0 0 0 0 0 0
0 0 0 0 0 0 0 0 0 0 0 0 -5 -6 0 -1 -4 -1 -1 0 0 0 0 0 0 0 0 0 0 0 0 0 0 0 0 0 0 0 0 0 0 0 0 0 0 0 0
-2 0 0 0 0 0 0 0 0 0 0 0 0 -1 0 0 0 -1 -1 0 0 0 0 0 0 0 0 0 0 0 0 0 0 0 0 0 0 0 0 0 0 0 0 0 0 0 -4
-1 0 0 0 0 0 0 0 0 0 0 0 0 0 0 0 0 0 0 0 0 0 0 0 0 0 0 0 0 0 0 0 0 0 0 0 0 0 0 0 0 0 0 0 0 0 -4
0 -1 0 0 0 0 0 0 0 0 0 0 0 0 0 0 -1 0 0 0 0 0 0 0 0 0 0 0 0 0 0 0 0 0 0 0 0 0 0 0 0 0 0 0 0 0 0
0 0 0 0 0 0 0 0 0 0 0 0 0 0 0 0 0 0 0 0 0 0 0 0 0 0 0 0 0 0 0 0 0 0 0 0 0 0 0 0 0 0 0 -4 -1 0 -1
-1 0 0 0 0 0 -1 0 0 0 0 0 0 -4 0 0 0 0 0 0 0 0 0 0 0 0 0 0 0 0 0 0 0 0 0 0 0 0 0 0 0 0 0 -10 -10 -1 -8
-1 0 0 0 0 0 -1 0 0 0 0 0 0 -2 0 0 0 0 0 0 0 0 0 0 0 0 0 0 0 0 0 0 0 0 0 0 0 0 0 0 0 0 -1 -15 -1 -2 0
-1 0 0 0 0 0 0 0 0 0 0 0 0 0 0 0 0 0 0 0 0 0 0 0 0 0 0 0 0 0 0 0 0 0 0 0 0 0 0 0 0 -2 -4 -3 -14 0 0
-2 0 0 0 0 0 0 0 0 0 0 -1 0 0 0 0 0 0 0 0 0 0 0 0 0 0 0 0 0 0 0 0 0 0 0 0 0 0 0 0 0 -86 -31 -6 0 0 0
Wind_Speed
19 20 20 22 23 25 26 27 29 29 30 30 31 32 32 33 34 35 35 37 37 37 37 35 31 26 21 24 23 19 17 13 13 15 15 16 17 17 17 18 18 16 16 16 13 11 11
20 21 22 23 25 26 27 28 29 30 31 32 33 34 34 35 35 36 36 37 36 35 34 32 24 20 21 25 17 19 16 13 14 14 15 16 17 17 17 19 19 17 16 13 12 12 12
21 22 24 25 26 27 28 29 31 32 33 33 34 35 36 36 37 37 37 37 36 34 31 27 17 17 22 22 17 19 13 14 14 14 16 16 17 17 18 20 18 13 18 15 13 13 15
22 23 24 26 27 28 30 31 32 33 34 34 35 36 37 38 38 38 39 38 37 34 25 20 16 16 22 13 12 14 11 13 13 13 15 16 17 18 19 17 18 20 18 20 17 14 15
22 23 24 26 27 29 30 31 32 34 35 35 37 38 39 40 40 40 41 38 37 24 20 17 19 19 23 16 18 16 10 14 15 12 13 15 16 19 19 20 21 21 22 21 21 13 17
22 23 24 25 27 29 30 31 33 34 35 36 37 39 40 41 41 42 42 41 24 22 18 17 16 20 16 19 17 16 11 10 13 14 16 16 17 19 20 19 23 22 22 22 22 17 16
23 24 25 26 28 29 30 32 33 34 35 36 37 38 39 39 39 41 38 28 27 23 24 22 17 16 21 20 14 14 13 11 13 16 18 18 19 21 21 20 19 18 21 22 20 16 16
23 25 26 27 28 30 31 32 34 35 36 37 38 38 39 39 39 37 27 23 22 24 31 24 9 6 1 15 17 13 12 11 13 16 17 19 22 17 15 17 14 14 19 19 19 17 11
24 26 27 28 30 31 32 33 34 35 36 37 38 38 39 38 38 23 22 19 23 21 27 27 16 15 13 5 9 11 9 12 13 16 16 16 14 15 17 18 12 12 14 17 18 18 16
24 26 28 30 31 32 33 34 35 36 37 38 37 37 37 37 22 26 19 23 26 16 28 24 18 16 11 10 12 8 8 11 13 14 16 14 14 16 20 17 12 16 12 15 17 17 21
24 26 28 30 31 33 34 35 36 37 38 38 38 37 35 30 27 23 22 28 21 16 29 18 14 11 9 9 13 14 10 11 11 12 13 14 12 17 18 16 13 16 17 18 17 16 19
24 26 28 30 32 33 34 35 37 38 39 40 39 38 34 25 25 22 24 26 14 22 27 17 12 11 9 11 14 13 12 14 14 13 13 9 12 13 14 16 16 15 18 19 18 19 23
23 25 27 29 31 33 35 36 37 39 40 41 40 38 33 24 21 18 25 17 21 25 19 18 15 11 9 11 11 12 13 14 16 18 17 18 16 15 16 17 17 18 20 25 25 23 25
23 25 27 29 31 33 35 36 38 39 40 42 41 37 26 21 19 19 19 18 27 22 20 18 15 12 12 10 12 13 13 13 16 15 17 19 19 20 21 18 18 20 19 21 30 29 28
24 25 27 28 30 32 34 36 38 39 41 42 39 29 26 21 17 15 18 27 26 21 18 20 16 15 14 12 12 12 14 14 16 16 16 17 17 16 21 21 20 19 21 18 20 21 25
25 25 26 28 30 32 34 36 37 39 40 40 33 28 23 20 10 13 23 29 25 20 20 19 20 16 14 12 11 12 12 15 14 16 14 15 20 21 20 20 24 20 18 20 21 25 26
25 26 26 27 29 31 33 35 36 38 40 36 27 25 20 15 12 20 30 30 26 24 21 19 20 19 16 14 13 14 14 15 15 15 16 17 19 22 21 24 24 22 19 19 17 18 21
26 26 26 26 28 30 32 34 35 37 38 30 25 26 19 13 23 25 30 25 24 25 21 22 20 18 16 14 15 15 15 16 15 15 18 19 20 24 21 19 19 18 18 17 18 18 19
25 26 26 26 27 29 30 32 34 35 34 30 27 24 20 17 29 30 27 27 28 26 22 21 20 18 16 14 15 14 15 15 14 17 17 16 21 22 20 17 16 18 18 18 18 18 18
25 26 26 26 26 28 29 31 32 34 34 26 22 24 21 23 23 26 31 31 29 26 30 26 23 17 15 16 16 14 14 15 16 17 17 17 18 17 17 17 17 17 18 16 16 18 17
24 25 26 26 26 27 28 30 31 32 33 21 19 21 21 24 28 32 27 25 27 27 25 22 21 20 17 17 17 16 15 13 16 14 17 17 16 16 17 17 17 18 19 16 16 17 19
24 25 25 26 26 26 26 28 29 31 30 20 21 22 23 28 27 28 31 28 28 26 26 24 22 17 18 18 18 16 12 14 15 13 15 16 14 14 16 17 17 17 18 19 20 19 19
24 24 25 25 26 25 24 26 27 28 26 21 21 23 24 26 24 25 23 27 24 22 26 26 22 17 16 17 15 10 14 10 11 11 12 13 11 14 15 15 17 17 17 17 18 20 19
24 24 25 25 25 25 23 24 25 25 24 22 21 22 22 26 26 23 26 27 30 28 29 24 20 18 13 3 6 10 11 12 12 13 12 10 12 15 16 16 18 17 17 16 18 19 19
24 24 24 24 24 24 22 23 24 25 25 23 21 20 22 25 26 25 24 27 29 27 28 28 21 15 5 9 10 14 16 15 14 14 13 10 12 16 16 17 19 18 16 16 19 21 20
23 23 24 24 24 24 23 23 23 24 25 23 19 20 21 24 23 22 24 23 23 23 23 22 16 10 15 16 15 17 17 15 13 13 13 12 14 15 17 20 22 20 18 15 19 23 20
24 24 24 24 24 24 23 22 23 24 24 23 20 20 21 24 23 20 21 21 19 20 23 19 18 18 16 16 17 17 16 13 13 11 12 13 16 17 17 20 20 17 17 17 23 23 21
24 24 24 24 24 24 24 22 23 23 23 21 21 19 20 24 29 24 21 23 22 21 21 21 20 20 18 17 16 15 15 13 13 12 12 12 15 17 18 20 22 17 19 22 19 19 20
24 24 24 24 25 24 24 23 23 23 22 21 21 21 23 26 28 27 31 33 31 29 24 21 20 18 17 15 15 13 14 12 11 13 13 15 15 16 18 19 19 20 19 19 19 20 20
Wind_Direction
329 329 325 319 320 320 318 315 313 311 309 309 307 305 304 304 305 306 305 307 306 307 307 308 313 327 340 327 320 335 340 347 345 343 338 336 332 331 325 325 324 324 329 335 340 345 347
325 325 324 321 319 319 316 316 315 310 310 310 308 306 304 302 302 301 302 303 301 301 303 310 343 353 341 325 351 341 345 339 338 339 334 334 331 334 327 325 322 324 328 336 339 338 335
321 321 320 319 321 320 316 311 311 311 310 308 308 307 304 302 302 299 298 299 297 296 296 343 16 12 337 330 355 347 357 343 343 338 328 332 333 331 326 322 330 331 321 329 328 328 328
321 319 318 317 320 318 314 311 311 309 311 307 306 307 305 302 299 295 295 294 293 290 343 1 18 15 334 28 28 14 23 359 356 348 337 336 334 324 319 326 324 320 321 314 322 324 331
323 324 322 320 321 317 315 313 312 311 312 308 305 305 303 302 300 296 295 290 290 340 350 4 349 349 331 16 2 21 49 1 0 5 354 345 338 326 323 312 310 312 308 310 315 325 326
330 327 326 325 322 320 317 317 316 315 314 311 306 305 302 300 301 302 297 295 338 344 351 353 356 337 353 340 2 15 35 40 8 358 349 342 335 325 323 319 307 308 307 310 311 325 323
333 331 329 328 325 322 321 320 317 318 317 314 311 307 304 299 301 303 307 328 320 325 331 322 336 339 330 342 22 20 34 33 16 355 339 345 327 321 324 324 322 321 314 313 319 325 326
334 333 332 329 328 325 322 321 321 320 318 317 313 310 306 305 304 306 321 326 331 324 306 320 327 325 267 341 342 13 48 19 6 349 352 339 328 338 350 345 339 335 326 322 326 333 333
327 330 332 331 328 326 325 323 320 320 319 317 314 312 311 309 303 317 318 328 330 334 308 311 332 334 345 28 7 11 56 19 3 352 351 345 355 359 350 345 350 343 340 338 337 343 340
326 326 325 326 327 327 325 324 322 320 318 316 314 313 312 310 310 310 313 321 322 338 302 308 320 333 1 3 349 24 51 28 11 360 3 9 17 4 349 355 5 345 359 350 345 344 335
324 326 326 325 324 325 324 324 322 320 318 316 314 311 310 311 301 301 309 310 319 327 292 314 326 356 10 6 3 360 30 16 9 10 10 9 12 358 355 358 11 352 351 346 345 341 339
324 325 326 325 325 324 323 322 321 320 318 316 312 308 305 306 299 298 303 305 316 294 285 307 328 330 345 340 350 4 6 5 14 13 8 18 14 8 8 3 359 360 349 348 347 342 330
322 325 326 326 325 323 323 322 320 319 317 315 310 304 301 302 292 304 301 297 284 277 302 296 304 316 325 331 335 347 352 350 350 348 356 358 2 7 5 358 2 358 352 338 336 338 334
316 320 324 325 325 324 323 322 320 318 316 314 310 304 305 296 293 294 294 276 270 284 282 302 303 306 311 325 323 332 337 339 347 357 351 349 346 356 358 0 355 352 352 342 329 332 332
316 317 319 322 323 323 323 322 320 318 316 313 308 307 300 294 280 285 272 262 268 278 292 289 297 293 298 309 323 325 327 332 338 350 348 350 350 2 358 356 352 352 346 353 342 344 340
319 317 317 320 321 322 323 322 321 320 317 314 308 301 293 289 279 272 264 262 269 279 290 290 281 286 287 296 304 316 324 334 337 345 358 354 339 348 350 350 352 354 358 348 350 342 343
319 316 316 318 319 320 321 322 321 321 320 316 307 290 295 286 269 264 258 261 268 276 282 282 282 283 288 290 298 305 318 324 334 343 354 353 343 340 347 344 345 350 354 0 6 1 354
317 315 314 316 317 319 320 320 321 323 322 325 305 279 297 272 258 263 258 264 270 269 280 277 282 283 284 290 297 300 306 317 334 344 342 345 343 336 346 359 3 13 13 14 7 8 12
315 315 314 314 315 318 319 320 321 322 325 318 300 281 290 265 256 256 263 264 262 262 272 277 276 279 286 286 295 299 307 325 336 339 343 348 341 341 348 357 9 9 11 19 21 22 19
312 311 312 312 313 316 318 319 319 318 317 316 301 275 275 260 264 263 256 257 258 261 261 267 270 276 279 284 295 298 305 320 336 341 351 351 347 348 352 3 11 6 6 16 19 16 18
312 311 311 312 312 314 317 319 319 317 315 314 297 278 276 262 258 256 257 257 253 254 255 265 265 266 272 278 287 294 304 325 331 344 344 351 353 2 6 11 10 11 11 20 15 16 11
310 310 310 311 310 311 315 319 320 320 318 312 290 283 274 264 264 259 245 250 249 253 252 255 260 266 272 279 286 292 303 313 325 337 344 347 352 5 3 9 11 13 16 20 20 20 20
308 309 309 309 309 311 316 317 321 323 328 315 300 288 266 258 259 257 246 247 251 255 249 253 258 264 273 282 295 317 313 331 340 343 346 347 6 357 359 6 2 1 9 12 14 12 12
305 305 307 307 307 307 316 316 320 321 324 314 298 284 262 255 255 261 256 255 246 248 245 252 255 261 272 346 359 342 343 343 346 343 347 1 359 357 357 1 354 4 7 11 14 10 12
300 301 303 304 305 303 313 312 313 313 312 306 293 276 261 255 254 261 260 251 246 245 244 241 253 257 243 278 300 298 302 312 325 332 343 2 2 354 356 355 352 359 6 8 2 0 6
298 299 300 300 300 299 304 307 307 310 309 305 288 271 263 252 245 262 256 248 239 241 239 242 246 240 263 272 284 283 290 304 312 325 348 359 0 359 357 350 348 357 4 11 6 353 6
292 293 292 295 295 295 296 303 302 305 306 302 277 272 262 250 248 258 249 240 244 242 236 230 231 243 263 271 277 282 290 306 310 324 334 349 350 350 354 351 356 7 12 14 354 356 8
289 288 288 290 292 291 292 298 297 298 301 297 268 268 265 253 252 257 248 244 247 240 229 228 233 246 257 270 277 284 295 301 314 330 347 355 355 355 358 356 354 14 9 1 14 22 27
285 285 286 288 288 288 287 290 289 290 292 290 266 269 266 246 241 257 248 239 233 233 239 234 245 248 261 274 282 291 295 308 324 330 354 351 4 5 5 10 18 18 28 38 41 34 29